ROMMA est une association bénévole à but non lucratif. Votre soutien est indispensable : ADHERER à ROMMA ou FAIRE un DON

Le Versoud - (38, Isère)

Vallée du Grésivaudan (220 m)   Longitude: 05° 51' 44" E   Latitude: 45° 13' 06" N Station partenaire n°6
 

Détail journalier du     <<     >>

Température Precipitation Humidité Pression Vent Dir Rafale Dir. rafale Ensol.
Heure (°C) (mm) (%) (hPa) (km/h) (km/h) (min)
01:00 1.0092103200---0
02:00 0.7091103100---0
03:00 0.4090103000---0
04:00 0.3089102900---0
05:00 0.1089102900---0
06:00 0.20881029011SE0
07:00 -0.4089103000---0
08:00 -0.4089103000---0
09:00 1.3086102900---5
10:00 5.40.262102800---60
11:00 6.7056102700---45
12:00 8.7047102600---60
13:00 9.8042102400---55
14:00 11.7035102300---50
15:00 13.3034102100---25
16:00 14.9031102006NE55
17:00 14.803710181---8NNE50
18:00 12.7043101808ENE15
19:00 10.7055101800---0
20:00 9.8062101800---0
21:00 9.7059101800---0
22:00 9.9055101803ENE0
23:00 9.3058101800---0
minuit 10.904110172---32SE0

Graphique du 12-03-2019

 

Serveur OMMA